This is the latest recevied weather packets stored in our database for station/object N2XP. If no packets are shown the sender has not sent any weather packets the latest 1 day(s).
| Time | Temp. | Humidity | Pressure | Rain* | Wind** | Luminosity | Snow |
|---|---|---|---|---|---|---|---|
| 1778046354 | 17.22° C | 75% | 1007.2 hPa | 0 mm | - | - | - |
| 1778045445 | 17.78° C | 74% | 1007.5 hPa | 0 mm | - | - | - |
| 1778044544 | 17.78° C | 74% | 1007.6 hPa | 0 mm | - | - | - |
| 1778043627 | 17.78° C | 74% | 1007.7 hPa | 0 mm | - | - | - |
| 1778041824 | 17.78° C | 72% | 1007.7 hPa | 0 mm | - | - | - |
| 1778040921 | 18.33° C | 72% | 1007.7 hPa | 0 mm | - | - | - |
| 1778040020 | 18.33° C | 71% | 1007.7 hPa | 0 mm | - | - | - |
| 1778039137 | 18.89° C | 70% | 1007.7 hPa | 0 mm | - | - | - |
| 1778038215 | 18.89° C | 70% | 1007.8 hPa | 0 mm | - | - | - |
| 1778037344 | 18.89° C | 68% | 1007.6 hPa | 0 mm | - | - | - |
| 1778035540 | 19.44° C | 64% | 1007.6 hPa | 0 mm | - | - | - |
| 1778034660 | 20° C | 61% | 1007.6 hPa | 0 mm | - | - | - |
| 1778033739 | 20.56° C | 59% | 1007.5 hPa | 0 mm | - | - | - |
| 1778031938 | 21.11° C | 57% | 1007.2 hPa | 0 mm | - | - | - |
| 1778031040 | 21.11° C | 55% | 1007.2 hPa | 0 mm | - | - | - |
| 1778030135 | 21.11° C | 55% | 1007.1 hPa | 0 mm | - | - | - |
| 1778029238 | 21.67° C | 54% | 1006.8 hPa | 0 mm | - | - | - |
| 1778028356 | 21.67° C | 52% | 1006.8 hPa | 0 mm | - | - | - |
| 1778027444 | 21.67° C | 49% | 1006.6 hPa | 0 mm | - | - | - |
| 1778026535 | 22.22° C | 48% | 1006.5 hPa | 0 mm | - | - | - |
| 1778023834 | 23.33° C | 45% | 1006.2 hPa | 0 mm | - | - | - |
| 1778022933 | 23.89° C | 43% | 1006 hPa | 0 mm | - | - | - |
* Rain latest hour (hover to see other rain measurements)
** Current wind speed in m/s (hover to see current wind gust speed)